Weather History for Hot Springs, VA

Change the Weather History Date:

Saturday, November 16, 2013

  Actual Average Record
Temperature  
Mean Temperature 48 °F -  
Max Temperature 53 °F 44 °F 62 °F (2001)
Min Temperature 42 °F 31 °F 12 °F (1996)
Degree Days  
Heating Degree Days 18    
Moisture  
Dew Point 45 °F    
Average Humidity 93    
Maximum Humidity 100    
Minimum Humidity 77    
Precipitation  
Precipitation 0.00 in - - ()
Sea Level Pressure  
Sea Level Pressure 30.27 in    
Wind  
Wind Speed 7 mph (SSW)    
Max Wind Speed 15 mph    
Max Gust Speed 23 mph    
Visibility 6 miles    
Events Fog , Rain    
Averages and records for this station are not official NWS values.
T = Trace of Precipitation, MM = Missing Value Source: NWS Daily Summary

Daily Weather History Graph

Daily Weather History Graph

Search for Another Location

Airport:

Trip Planner

Search our weather history database for the weather conditions in past years. The results will help you decide how hot, cold, wet, or windy it might be!

Date:

Astronomy

Nov. 16, 2013 Rise Set
Actual Time 7:01 AM EST 5:06 PM EST
Civil Twilight 6:33 AM EST 5:34 PM EST
Nautical Twilight 6:01 AM EST 6:06 PM EST
Astronomical Twilight 5:30 AM EST 6:37 PM EST
Moon 4:40 PM EST (11/16) 5:56 AM EST (11/16)
Length of Visible Light 11h 01m
Length of Day
10h 05m
Waxing Gibbous, 99% of the Moon is Illuminated
Nov 16
Waxing Gibbous
Nov 17
Full
Nov 25
Last Quarter
Dec 2
New
Dec 9
First Quarter

Hourly Weather History & Observations

Time (EST) Temp. Windchill Dew Point Humidity Pressure Visibility Wind Dir Wind Speed Gust Speed Precip Events Conditions
12:15 AM 44.6 °F 38.8 °F 42.8 °F 93% 30.26 in 10.0 mi SW 11.5 mph - 0.01 in   Overcast
12:35 AM 44.6 °F 40.7 °F 42.8 °F 93% 30.25 in 10.0 mi SW 6.9 mph - 0.01 in   Overcast
12:55 AM 44.6 °F 40.7 °F 42.8 °F 93% 30.25 in 10.0 mi SW 6.9 mph - N/A   Overcast
1:15 AM 42.8 °F 39.3 °F 42.8 °F 100% 30.25 in 10.0 mi WSW 5.8 mph - N/A   Overcast
1:35 AM 42.8 °F 38.6 °F 42.8 °F 100% 30.25 in 10.0 mi SW 6.9 mph - N/A   Overcast
1:55 AM 44.6 °F 41.4 °F 42.8 °F 93% 30.25 in 10.0 mi SW 5.8 mph - N/A   Overcast
2:15 AM 42.8 °F 39.3 °F 42.8 °F 100% 30.25 in 10.0 mi SW 5.8 mph - N/A   Overcast
2:35 AM 44.6 °F 41.4 °F 42.8 °F 93% 30.25 in 10.0 mi SW 5.8 mph - N/A   Overcast
2:55 AM 44.6 °F 41.4 °F 42.8 °F 93% 30.25 in 10.0 mi SW 5.8 mph - N/A   Overcast
3:15 AM 44.6 °F 41.4 °F 42.8 °F 93% 30.25 in 10.0 mi SW 5.8 mph - N/A   Overcast
3:35 AM 44.6 °F 41.4 °F 42.8 °F 93% 30.25 in 10.0 mi SW 5.8 mph - N/A   Overcast
3:55 AM 44.6 °F 41.4 °F 42.8 °F 93% 30.24 in 10.0 mi WSW 5.8 mph - N/A   Overcast
4:15 AM 44.6 °F 41.4 °F 42.8 °F 93% 30.24 in 10.0 mi SW 5.8 mph - N/A   Overcast
4:35 AM 44.6 °F 40.7 °F 44.6 °F 100% 30.25 in 10.0 mi SW 6.9 mph - N/A   Overcast
4:55 AM 44.6 °F 40.7 °F 44.6 °F 100% 30.25 in 10.0 mi WSW 6.9 mph - N/A   Overcast
5:15 AM 44.6 °F 40.7 °F 42.8 °F 93% 30.26 in 10.0 mi WSW 6.9 mph - N/A   Mostly Cloudy
5:35 AM 42.8 °F 38.0 °F 42.8 °F 100% 30.25 in 10.0 mi WSW 8.1 mph - N/A   Scattered Clouds
5:55 AM 42.8 °F 38.6 °F 42.8 °F 100% 30.25 in 10.0 mi SW 6.9 mph - N/A   Clear
6:15 AM 44.6 °F 41.4 °F 42.8 °F 93% 30.26 in 10.0 mi WSW 5.8 mph - N/A   Clear
6:35 AM 44.6 °F 40.7 °F 44.6 °F 100% 30.27 in 10.0 mi WSW 6.9 mph - N/A   Mostly Cloudy
6:55 AM 46.4 °F 41.9 °F 44.6 °F 93% 30.27 in 10.0 mi WSW 9.2 mph - N/A   Overcast
7:15 AM 46.4 °F 44.3 °F 44.6 °F 93% 30.28 in 10.0 mi SW 4.6 mph - N/A   Overcast
7:35 AM 44.6 °F 41.4 °F 44.6 °F 100% 30.28 in 10.0 mi South 5.8 mph - N/A   Mostly Cloudy
7:55 AM 46.4 °F 44.3 °F 44.6 °F 93% 30.29 in 10.0 mi South 4.6 mph - N/A   Mostly Cloudy
8:15 AM 46.4 °F 44.3 °F 46.4 °F 100% 30.30 in 10.0 mi South 4.6 mph - N/A   Mostly Cloudy
8:35 AM 50.0 °F - 46.4 °F 87% 30.30 in 10.0 mi SSW 3.5 mph - N/A   Scattered Clouds
8:55 AM 50.0 °F - 46.4 °F 87% 30.30 in 10.0 mi South 5.8 mph - N/A   Clear
9:15 AM 50.0 °F - 46.4 °F 87% 30.30 in 10.0 mi South 3.5 mph - N/A   Clear
9:35 AM 51.8 °F - 48.2 °F 88% 30.31 in 10.0 mi South 4.6 mph - N/A   Scattered Clouds
9:55 AM 51.8 °F - 46.4 °F 82% 30.31 in 10.0 mi South 3.5 mph - N/A   Scattered Clouds
10:15 AM 53.6 °F - 46.4 °F 77% 30.30 in 10.0 mi West 6.9 mph - N/A   Scattered Clouds
10:35 AM 53.6 °F - 46.4 °F 77% 30.31 in 10.0 mi SW 4.6 mph - N/A   Scattered Clouds
10:55 AM 53.6 °F - 46.4 °F 77% 30.31 in 10.0 mi WSW 8.1 mph - N/A   Mostly Cloudy
11:15 AM 53.6 °F - 46.4 °F 77% 30.31 in 10.0 mi WSW 5.8 mph - N/A   Mostly Cloudy
11:35 AM 53.6 °F - 46.4 °F 77% 30.30 in 10.0 mi SSW 5.8 mph - N/A   Clear
11:55 AM 53.6 °F - 46.4 °F 77% 30.30 in 10.0 mi Calm Calm - N/A   Scattered Clouds
12:15 PM 53.6 °F - 46.4 °F 77% 30.29 in 10.0 mi SSW 3.5 mph - N/A   Mostly Cloudy
12:35 PM 51.8 °F - 46.4 °F 82% 30.29 in 10.0 mi South 5.8 mph - N/A   Overcast
12:55 PM 51.8 °F - 46.4 °F 82% 30.28 in 10.0 mi South 6.9 mph - N/A   Overcast
1:15 PM 53.6 °F - 46.4 °F 77% 30.28 in 10.0 mi South 5.8 mph - N/A   Overcast
1:35 PM 53.6 °F - 46.4 °F 77% 30.27 in 10.0 mi South 6.9 mph - N/A   Scattered Clouds
1:55 PM 53.6 °F - 46.4 °F 77% 30.27 in 10.0 mi South 8.1 mph - N/A   Clear
2:15 PM 53.6 °F - 46.4 °F 77% 30.26 in 10.0 mi South 8.1 mph - N/A   Clear
2:35 PM 46.4 °F 44.3 °F 46.4 °F 100% 30.26 in 0.2 mi South 4.6 mph - N/A Fog Fog
3:15 PM 50.0 °F - 46.4 °F 87% 30.26 in 10.0 mi SSE 6.9 mph - N/A   Clear
3:35 PM 46.4 °F 45.2 °F 44.6 °F 93% 30.27 in 0.2 mi SSE 3.5 mph - N/A Fog Fog
3:55 PM 44.6 °F 41.4 °F 44.6 °F 100% 30.26 in 0.2 mi SSE 5.8 mph - N/A Fog Fog
4:15 PM 44.6 °F 39.7 °F 44.6 °F 100% 30.26 in 0.2 mi SSE 9.2 mph - N/A   Unknown
4:35 PM 44.6 °F 40.2 °F 44.6 °F 100% 30.26 in 0.2 mi South 8.1 mph - N/A   Unknown
4:55 PM 44.6 °F 39.7 °F 44.6 °F 100% 30.26 in 0.2 mi SSE 9.2 mph - N/A   Unknown
5:15 PM 44.6 °F 40.2 °F 44.6 °F 100% 30.26 in 0.2 mi SSE 8.1 mph - N/A   Unknown
5:35 PM 44.6 °F 40.2 °F 44.6 °F 100% 30.26 in 0.2 mi SSE 8.1 mph - N/A   Unknown
5:55 PM 44.6 °F 40.2 °F 44.6 °F 100% 30.27 in 0.2 mi South 8.1 mph - N/A   Unknown
6:15 PM 44.6 °F 39.7 °F 44.6 °F 100% 30.27 in 0.2 mi South 9.2 mph 16.1 mph N/A   Unknown
6:35 PM 44.6 °F 39.7 °F 44.6 °F 100% 30.26 in 0.2 mi SSE 9.2 mph - N/A   Unknown
6:55 PM 44.6 °F 39.7 °F 44.6 °F 100% 30.26 in 0.2 mi South 9.2 mph - N/A   Unknown
7:15 PM 44.6 °F 40.2 °F 44.6 °F 100% 30.26 in 0.2 mi SSE 8.1 mph - N/A Rain Light Rain
7:35 PM 44.6 °F 40.2 °F 44.6 °F 100% 30.27 in 0.2 mi South 8.1 mph - N/A   Unknown
7:55 PM 44.6 °F 40.2 °F 44.6 °F 100% 30.27 in 0.2 mi SSE 8.1 mph - N/A   Unknown
8:15 PM 46.4 °F 41.5 °F 46.4 °F 100% 30.27 in 0.2 mi SSE 10.4 mph - N/A   Unknown
8:35 PM 46.4 °F 41.9 °F 46.4 °F 100% 30.27 in 0.2 mi South 9.2 mph - N/A   Unknown
8:55 PM 46.4 °F 40.1 °F 46.4 °F 100% 30.26 in 0.2 mi South 15.0 mph 23.0 mph N/A   Unknown
9:15 PM 46.4 °F 41.5 °F 46.4 °F 100% 30.26 in 0.2 mi SSE 10.4 mph - N/A   Overcast
9:35 PM 46.4 °F 41.9 °F 46.4 °F 100% 30.26 in 0.2 mi South 9.2 mph - N/A   Unknown
9:55 PM 46.4 °F 42.9 °F 46.4 °F 100% 30.26 in 0.2 mi South 6.9 mph 17.3 mph N/A Rain Light Rain
10:15 PM 46.4 °F 42.9 °F 46.4 °F 100% 30.27 in 0.2 mi SSW 6.9 mph - N/A   Overcast
10:35 PM 46.4 °F 41.1 °F 46.4 °F 100% 30.26 in 0.2 mi SSW 11.5 mph 16.1 mph N/A   Unknown
10:55 PM 46.4 °F 43.5 °F 46.4 °F 100% 30.25 in 0.2 mi SSE 5.8 mph - N/A   Unknown
11:15 PM 46.4 °F 41.5 °F 46.4 °F 100% 30.25 in 0.2 mi South 10.4 mph 17.3 mph N/A   Unknown
11:35 PM 46.4 °F 41.9 °F 46.4 °F 100% 30.24 in 0.2 mi SSE 9.2 mph 18.4 mph N/A   Unknown
11:55 PM 46.4 °F 42.4 °F 46.4 °F 100% 30.26 in 0.2 mi SSW 8.1 mph 18.4 mph N/A   Unknown